EW2099 Weather Reports


Display with metric or nautical units.
time (UTC)temp
F
wind
direction
speed
MPH
gust
MPH
rain 1hr
in
rain 24hr
in
rain mn
in
humidity
%
barometer
mb
20260502163017 63 13 1.0 6.0 0.00 0.02 0.02 47 1014.4
20260502161513 63 49 2.0 9.0 0.00 0.02 0.02 47 1014.5
20260502151506 63 60 3.0 9.0 0.00 0.02 0.02 47 1015.3
20260502123049 65 323 3.0 6.0 0.00 0.02 0.02 42 1017.5
20260502121549 65 311 2.0 7.0 0.00 0.02 0.02 40 1017.8
20260502114543 65 264 2.0 9.0 0.00 0.02 0.02 40 1017.9
20260502113041 65 266 1.0 7.0 0.00 0.02 0.02 39 1018.2
20260502111540 66 289 2.0 6.0 0.00 0.02 0.02 39 1018.1
20260502110037 65 37 1.0 6.0 0.00 0.02 0.02 41 1018.2
20260502104543 64 42 3.0 9.0 0.00 0.02 0.02 42 1018.5
20260502103030 64 276 2.0 9.0 0.00 0.02 0.02 48 1018.6
20260502101531 64 306 1.0 7.0 0.00 0.02 0.02 49 1018.7
20260502091526 63 55 2.0 7.0 0.00 0.02 0.02 49 1019.1
20260502071507 58 217 1.0 4.0 0.00 0.02 0.02 64 1019.1
20260502070008 58 229 0.0 4.0 0.00 0.02 0.02 64 1019.1
20260502064510 57 175 0.0 3.0 0.00 0.02 0.02 65 1018.9
20260502063006 57 224 0.0 2.0 0.00 0.02 0.02 65 1019.0
20260502061504 57 219 0.0 3.0 0.00 0.02 0.02 65 1019.0
20260502060003 57 190 0.0 3.0 0.00 0.02 0.02 68 1018.9
20260502054505 55 231 0.0 1.0 0.00 0.02 0.02 70 1018.8
20260502053001 55 231 0.0 1.0 0.00 0.02 0.02 71 1018.8
20260502051701 54 214 0.0 0.0 0.00 0.02 0.02 70 1018.9
20260502050100 55 214 0.0 0.0 0.00 0.02 0.02 70 1018.9
20260502044607 55 214 0.0 2.0 0.00 0.02 0.02 69 1018.8
20260502043103 56 270 0.0 3.0 0.00 0.02 0.02 69 1018.7
20260502041555 56 241 0.0 2.0 0.00 0.02 0.02 69 1018.8
20260502040053 55 233 0.0 1.0 0.01 0.02 0.02 68 1018.8
20260502034551 55 229 0.0 1.0 0.01 0.02 0.02 66 1019.1
20260502033054 55 211 0.0 0.0 0.01 0.02 0.02 64 1019.4
20260502031606 55 211 0.0 2.0 0.01 0.02 0.02 64 1019.5
20260502030047 56 262 0.0 3.0 0.01 0.02 0.02 64 1019.5
20260502024553 56 252 0.0 2.0 0.02 0.02 0.02 63 1019.5
20260502023045 56 273 0.0 4.0 0.02 0.02 0.02 62 1019.7
20260502021543 57 261 0.0 3.0 0.02 0.02 0.02 61 1019.7
20260502020046 57 293 0.0 3.0 0.01 0.01 0.01 58 1019.5
20260502014541 57 279 0.0 2.0 0.00 0.00 0.00 57 1019.3
20260502013040 58 347 0.0 4.0 0.00 0.00 0.00 57 1019.3
20260502011546 56 330 0.0 1.0 0.00 0.00 0.00 59 1019.4
20260502010036 53 248 0.0 0.0 0.00 0.00 0.00 57 1019.4
20260502004533 53 248 0.0 0.0 0.00 0.00 0.00 56 1019.5
20260502003034 54 248 0.0 0.0 0.00 0.00 0.00 55 1019.6
20260502001530 55 248 0.0 0.0 0.00 0.00 0.00 54 1019.7
20260502000029 56 248 0.0 0.0 0.00 0.00 0.00 53 1020.0
20260501234528 57 248 0.0 2.0 0.00 0.00 0.00 53 1020.3
20260501233025 57 247 0.0 1.0 0.00 0.00 0.00 52 1020.4
20260501231534 56 226 0.0 3.0 0.00 0.00 0.00 52 1020.6
20260501230018 54 259 2.0 8.0 0.00 0.00 0.00 54 1020.7
20260501224517 53 264 0.0 0.0 0.00 0.00 0.00 55 1020.3
20260501223014 53 264 0.0 1.0 0.00 0.00 0.00 55 1020.2
20260501221512 54 264 0.0 1.0 0.00 0.00 0.00 54 1020.5
20260501220011 54 264 0.0 0.0 0.00 0.00 0.00 53 1020.6
20260501214521 55 264 0.0 0.0 0.00 0.00 0.00 52 1020.7
20260501213011 56 264 0.0 1.0 0.00 0.00 0.00 52 1020.9
20260501211516 56 317 0.0 0.0 0.00 0.00 0.00 53 1020.8
20260501210007 57 317 0.0 0.0 0.00 0.00 0.00 52 1020.6
20260501204509 56 317 0.0 0.0 0.00 0.00 0.00 52 1020.6
20260501203006 56 317 0.0 0.0 0.00 0.00 0.00 52 1020.6
20260501201507 57 317 0.0 0.0 0.00 0.00 0.00 52 1020.7
20260501200010 58 317 0.0 0.0 0.00 0.00 0.00 51 1020.7
20260501194506 59 317 0.0 0.0 0.00 0.00 0.00 49 1020.7
20260501193003 60 317 0.0 0.0 0.00 0.00 0.00 48 1020.6
20260501191502 61 317 0.0 1.0 0.00 0.00 0.00 47 1020.5
20260501190001 61 38 0.0 1.0 0.00 0.00 0.00 47 1020.4
20260501184600 61 276 0.0 3.0 0.00 0.00 0.00 47 1020.4
20260501183059 63 324 0.0 4.0 0.00 0.00 0.00 47 1020.3
20260501181600 68 63 0.0 5.0 0.00 0.00 0.00 37 1020.2
20260501180057 71 263 2.0 6.0 0.00 0.00 0.00 27 1020.1